GW0092 Weather Reports


time (UTC)temp
C
wind
direction
speed
KPH
gust
KPH
rain 1hr
cm
rain 24hr
cm
rain mn
cm
humidity
%
barometer
mb
20260901104603 23 0 0.0 0.0 0.00 0.58 0.00 100 1017.3
20260901103124 23 0 0.0 0.0 0.00 0.58 0.00 100 1017.2
20260901101602 23 0 0.0 0.0 0.00 0.58 0.00 100 1017.2
20260901100106 23 0 0.0 0.0 0.00 0.58 0.00 100 1017.1
20260901094600 22 0 0.0 1.6 0.00 0.58 0.00 100 1017.1
20260901093125 22 0 0.0 0.0 0.00 0.58 0.00 100 1017.0
20260901091608 22 0 0.0 0.0 0.00 0.58 0.00 100 1017.0
20260901090101 22 0 0.0 0.0 0.00 0.58 0.00 100 1017.1
20260901084558 22 0 0.0 0.0 0.00 0.58 0.00 100 1017.2
20260901083056 22 0 0.0 0.0 0.00 0.58 0.00 100 1017.3
20260901081615 22 0 0.0 0.0 0.00 0.58 0.00 100 1017.2
20260901080103 22 0 0.0 0.0 0.00 0.58 0.00 100 1017.2
20260901074559 22 0 0.0 0.0 0.00 0.58 0.00 100 1017.3
20260901073104 22 0 0.0 1.6 0.00 0.58 0.00 100 1017.4
20260901071606 22 0 0.0 0.0 0.00 0.58 0.00 100 1017.5
20260901070105 22 0 0.0 0.0 0.00 0.58 0.00 100 1017.4
20260901064605 22 0 0.0 0.0 0.00 0.58 0.00 100 1017.6
20260901063100 22 0 0.0 0.0 0.00 0.58 0.00 100 1017.8
20260901061600 22 0 0.0 0.0 0.00 0.58 0.00 100 1017.9
20260901060106 22 0 0.0 0.0 0.00 0.58 0.00 100 1018.1
20260901054603 22 0 0.0 0.0 0.00 0.58 0.00 100 1018.2
20260901053122 22 0 0.0 0.0 0.00 0.58 0.00 100 1018.4
20260901051557 22 0 0.0 0.0 0.00 0.58 0.00 100 1018.5
20260901050104 22 0 0.0 0.0 0.00 0.58 0.00 100 1018.5
20260901044558 22 0 0.0 0.0 0.00 0.58 0.00 100 1018.3
20260901043125 22 0 0.0 0.0 0.00 0.58 0.00 100 1018.3
20260901041610 22 0 0.0 0.0 0.00 0.58 0.00 100 1018.1
20260901040106 22 0 0.0 0.0 0.00 0.58 0.00 100 1018.2
20260901034607 22 0 0.0 0.0 0.00 0.58 0.58 100 1018.2
20260901033108 22 0 0.0 0.0 0.00 0.58 0.58 100 1018.2
20260901031605 22 0 0.0 0.0 0.00 0.58 0.58 100 1018.2
20260901030103 22 0 0.0 0.0 0.00 0.58 0.58 100 1018.3
20260901024607 22 0 0.0 0.0 0.00 0.58 0.58 100 1018.4
20260901023102 22 0 0.0 1.6 0.00 0.58 0.58 100 1018.5
20260901021609 22 0 0.0 0.0 0.00 0.58 0.58 100 1018.8
20260901020109 22 0 0.0 0.0 0.00 0.58 0.58 100 1019.0
20260901014605 22 0 0.0 0.0 0.00 0.58 0.58 100 1019.1
20260901013107 22 0 0.0 0.0 0.00 0.58 0.58 100 1019.1
20260901011603 22 0 0.0 0.0 0.00 0.58 0.58 100 1019.0
20260901010120 22 0 0.0 0.0 0.00 0.58 0.58 100 1018.9
20260901004617 22 0 0.0 0.0 0.00 0.58 0.58 100 1018.7
20260901003103 22 0 0.0 0.0 0.00 0.58 0.58 100 1018.6
20260901001608 22 0 0.0 0.0 0.00 0.58 0.58 100 1018.7
20260901000108 22 0 0.0 0.0 0.03 0.58 0.58 100 1018.6
20260831234605 22 0 0.0 0.0 0.03 0.58 0.58 100 1018.6
20260831233101 22 0 0.0 0.0 0.03 0.58 0.58 100 1018.6
20260831231557 22 0 0.0 0.0 0.10 0.58 0.58 99 1018.7
20260831230108 22 0 0.0 1.6 0.10 0.56 0.56 99 1018.9
20260831224601 23 297 1.6 3.2 0.10 0.56 0.56 99 1019.0
20260831223055 23 0 0.0 0.0 0.13 0.56 0.56 99 1019.0
20260831221608 22 0 0.0 1.6 0.08 0.48 0.48 99 1019.2
20260831220128 23 338 1.6 4.8 0.13 0.46 0.46 99 1019.5
20260831214603 23 283 0.0 4.8 0.25 0.46 0.46 99 1019.4
20260831213106 23 339 1.6 3.2 0.25 0.43 0.43 98 1019.3
20260831211604 24 255 0.0 1.6 0.33 0.41 0.41 99 1019.3
20260831210103 25 0 0.0 0.0 0.33 0.33 0.33 98 1019.3
20260831204604 25 0 0.0 0.0 0.20 0.20 0.20 98 1019.4
20260831203135 25 0 0.0 1.6 0.18 0.18 0.18 96 1019.4
20260831201606 26 0 0.0 1.6 0.08 0.08 0.08 94 1018.8
20260831200106 27 0 0.0 1.6 0.00 0.00 0.00 87 1018.9
20260831194611 28 0 0.0 4.8 0.00 0.00 0.00 84 1018.8
20260831193102 28 153 0.0 4.8 0.00 0.00 0.00 86 1018.6
20260831191605 27 127 0.0 4.8 0.00 0.00 0.00 87 1018.7
20260831190138 28 0 0.0 3.2 0.00 0.00 0.00 85 1018.7
20260831184603 28 0 0.0 4.8 0.00 0.00 0.00 85 1018.7
20260831183059 28 162 0.0 4.8 0.00 0.00 0.00 87 1018.8
20260831181606 28 0 0.0 4.8 0.00 0.00 0.00 87 1019.1
20260831174602 27 115 1.6 3.2 0.00 0.00 0.00 87 1019.2
20260831173115 28 248 0.0 4.8 0.00 0.00 0.00 85 1019.3
20260831171607 28 249 0.0 8.0 0.00 0.00 0.00 87 1019.3
20260831170110 28 158 0.0 4.8 0.00 0.00 0.00 87 1019.2
20260831164604 28 146 1.6 4.8 0.00 0.00 0.00 85 1019.2
20260831163105 28 0 1.6 4.8 0.00 0.00 0.00 88 1019.6
20260831161607 28 152 1.6 4.8 0.00 0.00 0.00 86 1019.8
20260831160135 28 141 0.0 6.4 0.00 0.00 0.00 86 1019.6
20260831154628 28 158 1.6 6.4 0.00 0.00 0.00 87 1019.7
20260831153132 28 125 1.6 6.4 0.00 0.00 0.00 88 1019.8
20260831151602 28 93 0.0 3.2 0.00 0.00 0.00 89 1019.7
20260831150055 27 0 0.0 3.2 0.00 0.00 0.00 88 1019.8
20260831144607 27 127 0.0 4.8 0.00 0.00 0.00 90 1019.5
20260831143102 27 125 0.0 4.8 0.00 0.00 0.00 92 1019.7
20260831141601 26 0 0.0 1.6 0.00 0.00 0.00 94 1019.6
20260831140108 26 260 0.0 4.8 0.00 0.00 0.00 97 1019.5
20260831134609 25 300 1.6 6.4 0.00 0.00 0.00 98 1019.7
20260831133103 25 285 1.6 4.8 0.00 0.00 0.00 98 1019.8
20260831131604 25 0 0.0 0.0 0.00 0.00 0.00 99 1019.9
20260831130137 24 0 0.0 0.0 0.00 0.00 0.00 100 1019.9
20260831124604 24 0 0.0 1.6 0.00 0.00 0.00 100 1019.7
20260831123106 23 360 0.0 4.8 0.00 0.00 0.00 100 1019.5
20260831121556 23 354 0.0 1.6 0.00 0.00 0.00 100 1019.3
20260831120146 23 0 0.0 1.6 0.00 0.00 0.00 100 1019.3
20260831114603 22 0 0.0 0.0 0.00 0.00 0.00 100 1019.3
20260831113102 22 0 0.0 0.0 0.00 0.00 0.00 100 1019.3
20260831111559 22 0 0.0 0.0 0.00 0.00 0.00 100 1019.3
20260831110107 22 0 0.0 0.0 0.00 0.00 0.00 100 1019.3